contact:dominique.lefevre@mio.osupytheas.fr, maurice.libes@osupytheas.fr, didier.mallarino@osupytheas.fr
Project:EMSO http://www.emso-fr.org/EMSO-France
Depth: 2436.0 m
Title:EMSO Ligure Ouest : Data MII capteur MICROCAT
DateTime_Computer,Latitude,Longitude,Temperature,Conductivity,Pressure,DateTime_Instrument
DateTime_Computer,Latitude,Longitude,degC,S m-1,dbar,DateTime_Instrument
2023-12-31T00:02:46Z,42.805,6.029,13.3036,4.60113,2470.777,2023-12-31T02:05:18Z
2023-12-31T00:05:50Z,42.805,6.029,13.3034,4.60113,2470.777,2023-12-31T02:08:21Z
2023-12-31T00:08:53Z,42.805,6.029,13.3034,4.60112,2470.763,2023-12-31T02:11:24Z
2023-12-31T00:11:56Z,42.805,6.029,13.3035,4.60111,2470.777,2023-12-31T02:14:27Z
2023-12-31T00:14:59Z,42.805,6.029,13.3033,4.60112,2470.74,2023-12-31T02:17:30Z
2023-12-31T00:18:02Z,42.805,6.029,13.3034,4.60111,2470.777,2023-12-31T02:20:33Z
2023-12-31T00:21:05Z,42.805,6.029,13.3033,4.60115,2470.763,2023-12-31T02:23:36Z
2023-12-31T00:24:08Z,42.805,6.029,13.3033,4.60110,2470.74,2023-12-31T02:26:39Z
2023-12-31T00:27:11Z,42.805,6.029,13.3034,4.60111,2470.726,2023-12-31T02:29:42Z
2023-12-31T00:30:14Z,42.805,6.029,13.3031,4.60114,2470.74,2023-12-31T02:32:45Z
2023-12-31T00:33:17Z,42.805,6.029,13.3034,4.60112,2470.754,2023-12-31T02:35:48Z
2023-12-31T00:36:20Z,42.805,6.029,13.3035,4.60112,2470.763,2023-12-31T02:38:51Z
2023-12-31T00:39:23Z,42.805,6.029,13.3038,4.60117,2470.763,2023-12-31T02:41:55Z
2023-12-31T00:42:27Z,42.805,6.029,13.3039,4.60113,2470.717,2023-12-31T02:44:58Z
2023-12-31T00:45:30Z,42.805,6.029,13.3035,4.60111,2470.717,2023-12-31T02:48:01Z
2023-12-31T00:48:33Z,42.805,6.029,13.3034,4.60110,2470.717,2023-12-31T02:51:04Z
2023-12-31T00:51:36Z,42.805,6.029,13.3035,4.60111,2470.754,2023-12-31T02:54:07Z
2023-12-31T00:54:39Z,42.805,6.029,13.3036,4.60112,2470.754,2023-12-31T02:57:10Z
2023-12-31T00:57:42Z,42.805,6.029,13.3033,4.60112,2470.754,2023-12-31T03:00:13Z
2023-12-31T01:00:45Z,42.805,6.029,13.3032,4.60111,2470.693,2023-12-31T03:03:16Z
2023-12-31T01:03:48Z,42.805,6.029,13.3036,4.60111,2470.717,2023-12-31T03:06:19Z
2023-12-31T01:06:51Z,42.805,6.029,13.3034,4.60112,2470.703,2023-12-31T03:09:22Z
2023-12-31T01:09:54Z,42.805,6.029,13.3034,4.60111,2470.717,2023-12-31T03:12:25Z
2023-12-31T01:12:57Z,42.805,6.029,13.3034,4.60111,2470.73,2023-12-31T03:15:28Z
2023-12-31T01:16:00Z,42.805,6.029,13.3034,4.60111,2470.754,2023-12-31T03:18:32Z
2023-12-31T01:19:03Z,42.805,6.029,13.3036,4.60113,2470.717,2023-12-31T03:21:35Z
2023-12-31T01:22:07Z,42.805,6.029,13.3037,4.60112,2470.717,2023-12-31T03:24:38Z
2023-12-31T01:25:10Z,42.805,6.029,13.3032,4.60110,2470.74,2023-12-31T03:27:41Z
2023-12-31T01:28:13Z,42.805,6.029,13.3034,4.60110,2470.73,2023-12-31T03:30:44Z
2023-12-31T01:31:16Z,42.805,6.029,13.3031,4.60111,2470.693,2023-12-31T03:33:47Z
2023-12-31T01:34:19Z,42.805,6.029,13.3032,4.60111,2470.717,2023-12-31T03:36:50Z
2023-12-31T01:37:22Z,42.805,6.029,13.3032,4.60110,2470.717,2023-12-31T03:39:53Z
2023-12-31T01:40:25Z,42.805,6.029,13.3033,4.60112,2470.707,2023-12-31T03:42:56Z
2023-12-31T01:43:28Z,42.805,6.029,13.3034,4.60111,2470.717,2023-12-31T03:45:59Z
2023-12-31T01:46:31Z,42.805,6.029,13.3034,4.60111,2470.74,2023-12-31T03:49:02Z
2023-12-31T01:49:34Z,42.805,6.029,13.3034,4.60110,2470.717,2023-12-31T03:52:05Z
2023-12-31T01:52:37Z,42.805,6.029,13.3034,4.60110,2470.693,2023-12-31T03:55:09Z
2023-12-31T01:55:40Z,42.805,6.029,13.3035,4.60111,2470.693,2023-12-31T03:58:12Z
2023-12-31T01:58:44Z,42.805,6.029,13.3034,4.60115,2470.74,2023-12-31T04:01:15Z
2023-12-31T02:01:47Z,42.805,6.029,13.3033,4.60112,2470.73,2023-12-31T04:04:18Z
2023-12-31T02:04:50Z,42.805,6.029,13.3031,4.60111,2470.693,2023-12-31T04:07:21Z
2023-12-31T02:07:53Z,42.805,6.029,13.3034,4.60111,2470.717,2023-12-31T04:10:24Z
2023-12-31T02:10:56Z,42.805,6.029,13.3031,4.60111,2470.717,2023-12-31T04:13:27Z
2023-12-31T02:13:59Z,42.805,6.029,13.3031,4.60112,2470.693,2023-12-31T04:16:30Z
2023-12-31T02:17:02Z,42.805,6.029,13.3034,4.60112,2470.717,2023-12-31T04:19:33Z
2023-12-31T02:20:05Z,42.805,6.029,13.3034,4.60112,2470.693,2023-12-31T04:22:36Z
2023-12-31T02:23:08Z,42.805,6.029,13.3031,4.60112,2470.754,2023-12-31T04:25:39Z
2023-12-31T02:26:11Z,42.805,6.029,13.3031,4.60113,2470.693,2023-12-31T04:28:42Z
2023-12-31T02:29:14Z,42.805,6.029,13.3033,4.60112,2470.693,2023-12-31T04:31:45Z
2023-12-31T02:32:17Z,42.805,6.029,13.3034,4.60112,2470.693,2023-12-31T04:34:49Z
2023-12-31T02:35:20Z,42.805,6.029,13.3034,4.60113,2470.754,2023-12-31T04:37:52Z
2023-12-31T02:38:24Z,42.805,6.029,13.3034,4.60111,2470.707,2023-12-31T04:40:55Z
2023-12-31T02:41:27Z,42.805,6.029,13.3036,4.60110,2470.693,2023-12-31T04:43:58Z
2023-12-31T02:44:30Z,42.805,6.029,13.3031,4.60112,2470.717,2023-12-31T04:47:01Z
2023-12-31T02:47:33Z,42.805,6.029,13.3032,4.60112,2470.717,2023-12-31T04:50:04Z
2023-12-31T02:50:36Z,42.805,6.029,13.3034,4.60112,2470.73,2023-12-31T04:53:07Z
2023-12-31T02:53:39Z,42.805,6.029,13.3033,4.60114,2470.717,2023-12-31T04:56:10Z
2023-12-31T02:56:42Z,42.805,6.029,13.3036,4.60112,2470.693,2023-12-31T04:59:13Z
2023-12-31T02:59:45Z,42.805,6.029,13.3034,4.60112,2470.693,2023-12-31T05:02:16Z
2023-12-31T03:02:48Z,42.805,6.029,13.3033,4.60112,2470.693,2023-12-31T05:05:19Z
2023-12-31T03:05:51Z,42.805,6.029,13.3034,4.60112,2470.693,2023-12-31T05:08:22Z
2023-12-31T03:08:54Z,42.805,6.029,13.3036,4.60114,2470.717,2023-12-31T05:11:26Z
2023-12-31T03:11:57Z,42.805,6.029,13.3035,4.60112,2470.67,2023-12-31T05:14:29Z
2023-12-31T03:15:01Z,42.805,6.029,13.3032,4.60120,2470.67,2023-12-31T05:17:32Z
2023-12-31T03:18:04Z,42.805,6.029,13.3034,4.60112,2470.693,2023-12-31T05:20:35Z
2023-12-31T03:21:07Z,42.805,6.029,13.3033,4.60113,2470.684,2023-12-31T05:23:38Z
2023-12-31T03:24:10Z,42.805,6.029,13.3034,4.60113,2470.684,2023-12-31T05:26:41Z
2023-12-31T03:27:13Z,42.805,6.029,13.3032,4.60113,2470.693,2023-12-31T05:29:44Z
2023-12-31T03:30:16Z,42.805,6.029,13.3031,4.60112,2470.67,2023-12-31T05:32:47Z
2023-12-31T03:33:19Z,42.805,6.029,13.3032,4.60112,2470.684,2023-12-31T05:35:50Z
2023-12-31T03:36:22Z,42.805,6.029,13.3031,4.60112,2470.707,2023-12-31T05:38:53Z
2023-12-31T03:39:25Z,42.805,6.029,13.3036,4.60111,2470.67,2023-12-31T05:41:56Z
2023-12-31T03:42:28Z,42.805,6.029,13.3034,4.60114,2470.693,2023-12-31T05:44:59Z
2023-12-31T03:45:31Z,42.805,6.029,13.3033,4.60112,2470.717,2023-12-31T05:48:02Z
2023-12-31T03:48:34Z,42.805,6.029,13.3034,4.60121,2470.693,2023-12-31T05:51:06Z
2023-12-31T03:51:37Z,42.805,6.029,13.3034,4.60111,2470.646,2023-12-31T05:54:09Z
2023-12-31T03:54:41Z,42.805,6.029,13.3033,4.60112,2470.67,2023-12-31T05:57:12Z
2023-12-31T03:57:44Z,42.805,6.029,13.3034,4.60112,2470.693,2023-12-31T06:00:15Z
2023-12-31T04:00:47Z,42.805,6.029,13.3034,4.60112,2470.693,2023-12-31T06:03:18Z
2023-12-31T04:03:50Z,42.805,6.029,13.3032,4.60112,2470.693,2023-12-31T06:06:21Z
2023-12-31T04:06:53Z,42.805,6.029,13.3031,4.60112,2470.693,2023-12-31T06:09:24Z
2023-12-31T04:09:56Z,42.805,6.029,13.3037,4.60115,2470.693,2023-12-31T06:12:27Z
2023-12-31T04:12:59Z,42.805,6.029,13.3034,4.60116,2470.73,2023-12-31T06:15:30Z
2023-12-31T04:16:02Z,42.805,6.029,13.3034,4.60114,2470.693,2023-12-31T06:18:33Z
2023-12-31T04:19:05Z,42.805,6.029,13.3036,4.60112,2470.707,2023-12-31T06:21:36Z
2023-12-31T04:22:08Z,42.805,6.029,13.3036,4.60115,2470.73,2023-12-31T06:24:39Z
2023-12-31T04:25:11Z,42.805,6.029,13.3029,4.60114,2470.717,2023-12-31T06:27:42Z
2023-12-31T04:28:14Z,42.805,6.029,13.3034,4.60111,2470.73,2023-12-31T06:30:46Z
2023-12-31T04:31:18Z,42.805,6.029,13.3030,4.60113,2470.717,2023-12-31T06:33:49Z
2023-12-31T04:34:21Z,42.805,6.029,13.3031,4.60111,2470.717,2023-12-31T06:36:52Z
2023-12-31T04:37:24Z,42.805,6.029,13.3033,4.60112,2470.717,2023-12-31T06:39:55Z
2023-12-31T04:40:27Z,42.805,6.029,13.3034,4.60113,2470.67,2023-12-31T06:42:58Z
2023-12-31T04:43:30Z,42.805,6.029,13.3035,4.60112,2470.693,2023-12-31T06:46:01Z
2023-12-31T04:46:33Z,42.805,6.029,13.3030,4.60112,2470.693,2023-12-31T06:49:04Z
2023-12-31T04:49:36Z,42.805,6.029,13.3034,4.60112,2470.717,2023-12-31T06:52:07Z
2023-12-31T04:52:39Z,42.805,6.029,13.3035,4.60116,2470.717,2023-12-31T06:55:10Z
2023-12-31T04:55:42Z,42.805,6.029,13.3034,4.60113,2470.693,2023-12-31T06:58:13Z
2023-12-31T04:58:45Z,42.805,6.029,13.3031,4.60115,2470.717,2023-12-31T07:01:16Z
2023-12-31T05:01:48Z,42.805,6.029,13.3034,4.60112,2470.73,2023-12-31T07:04:19Z
2023-12-31T05:04:51Z,42.805,6.029,13.3039,4.60112,2470.693,2023-12-31T07:07:23Z
2023-12-31T05:07:54Z,42.805,6.029,13.3039,4.60117,2470.717,2023-12-31T07:10:26Z
2023-12-31T05:10:58Z,42.805,6.029,13.3032,4.60112,2470.717,2023-12-31T07:13:29Z
2023-12-31T05:14:01Z,42.805,6.029,13.3036,4.60114,2470.73,2023-12-31T07:16:32Z
2023-12-31T05:17:04Z,42.805,6.029,13.3033,4.60112,2470.717,2023-12-31T07:19:35Z
2023-12-31T05:20:07Z,42.805,6.029,13.3033,4.60114,2470.74,2023-12-31T07:22:38Z
2023-12-31T05:23:10Z,42.805,6.029,13.3036,4.60113,2470.763,2023-12-31T07:25:41Z
2023-12-31T05:26:13Z,42.805,6.029,13.3034,4.60112,2470.73,2023-12-31T07:28:44Z
2023-12-31T05:29:16Z,42.805,6.029,13.3040,4.60114,2470.717,2023-12-31T07:31:47Z
2023-12-31T05:32:19Z,42.805,6.029,13.3034,4.60112,2470.754,2023-12-31T07:34:50Z
2023-12-31T05:35:22Z,42.805,6.029,13.3035,4.60119,2470.707,2023-12-31T07:37:53Z
2023-12-31T05:38:25Z,42.805,6.029,13.3033,4.60112,2470.74,2023-12-31T07:40:57Z
2023-12-31T05:41:28Z,42.805,6.029,13.3036,4.60112,2470.73,2023-12-31T07:44:00Z
2023-12-31T05:44:32Z,42.805,6.029,13.3034,4.60112,2470.74,2023-12-31T07:47:03Z
2023-12-31T05:47:35Z,42.805,6.029,13.3035,4.60112,2470.763,2023-12-31T07:50:06Z
2023-12-31T05:50:38Z,42.805,6.029,13.3034,4.60114,2470.777,2023-12-31T07:53:09Z
2023-12-31T05:53:41Z,42.805,6.029,13.3036,4.60114,2470.74,2023-12-31T07:56:12Z
2023-12-31T05:56:44Z,42.805,6.029,13.3036,4.60117,2470.763,2023-12-31T07:59:15Z
2023-12-31T05:59:47Z,42.805,6.029,13.3031,4.60114,2470.763,2023-12-31T08:02:18Z
2023-12-31T06:02:50Z,42.805,6.029,13.3036,4.60113,2470.74,2023-12-31T08:05:21Z
2023-12-31T06:05:53Z,42.805,6.029,13.3036,4.60114,2470.787,2023-12-31T08:08:24Z
2023-12-31T06:08:56Z,42.805,6.029,13.3034,4.60114,2470.8,2023-12-31T08:11:27Z
2023-12-31T06:11:59Z,42.805,6.029,13.3037,4.60117,2470.717,2023-12-31T08:14:30Z
2023-12-31T06:15:02Z,42.805,6.029,13.3034,4.60117,2470.768,2023-12-31T08:17:34Z
2023-12-31T06:18:05Z,42.805,6.029,13.3031,4.60114,2470.787,2023-12-31T08:20:37Z
2023-12-31T06:21:09Z,42.805,6.029,13.3039,4.60117,2470.787,2023-12-31T08:23:40Z
2023-12-31T06:24:12Z,42.805,6.029,13.3035,4.60114,2470.8,2023-12-31T08:26:43Z
2023-12-31T06:27:15Z,42.805,6.029,13.3038,4.60113,2470.824,2023-12-31T08:29:46Z
2023-12-31T06:30:18Z,42.805,6.029,13.3036,4.60112,2470.787,2023-12-31T08:32:49Z
2023-12-31T06:33:21Z,42.805,6.029,13.3036,4.60113,2470.81,2023-12-31T08:35:52Z
2023-12-31T06:36:24Z,42.805,6.029,13.3034,4.60114,2470.824,2023-12-31T08:38:55Z
2023-12-31T06:39:27Z,42.805,6.029,13.3034,4.60113,2470.777,2023-12-31T08:41:58Z
2023-12-31T06:42:30Z,42.805,6.029,13.3034,4.60117,2470.81,2023-12-31T08:45:01Z
2023-12-31T06:45:33Z,42.805,6.029,13.3033,4.60114,2470.8,2023-12-31T08:48:04Z
2023-12-31T06:48:36Z,42.805,6.029,13.3036,4.60114,2470.824,2023-12-31T08:51:07Z
2023-12-31T06:51:39Z,42.805,6.029,13.3034,4.60114,2470.81,2023-12-31T08:54:10Z
2023-12-31T06:54:42Z,42.805,6.029,13.3035,4.60112,2470.81,2023-12-31T08:57:14Z
2023-12-31T06:57:45Z,42.805,6.029,13.3034,4.60117,2470.796,2023-12-31T09:00:17Z
2023-12-31T07:00:49Z,42.805,6.029,13.3036,4.60114,2470.81,2023-12-31T09:03:20Z
2023-12-31T07:03:52Z,42.805,6.029,13.3031,4.60119,2470.824,2023-12-31T09:06:23Z
2023-12-31T07:06:55Z,42.805,6.029,13.3036,4.60114,2470.833,2023-12-31T09:09:26Z
2023-12-31T07:09:58Z,42.805,6.029,13.3031,4.60114,2470.81,2023-12-31T09:12:29Z
2023-12-31T07:13:01Z,42.805,6.029,13.3036,4.60117,2470.833,2023-12-31T09:15:32Z
2023-12-31T07:16:04Z,42.805,6.029,13.3038,4.60114,2470.81,2023-12-31T09:18:35Z
2023-12-31T07:19:07Z,42.805,6.029,13.3035,4.60115,2470.81,2023-12-31T09:21:38Z
2023-12-31T07:22:10Z,42.805,6.029,13.3036,4.60115,2470.88,2023-12-31T09:24:41Z
2023-12-31T07:25:13Z,42.805,6.029,13.3036,4.60114,2470.824,2023-12-31T09:27:44Z
2023-12-31T07:28:16Z,42.805,6.029,13.3033,4.60115,2470.81,2023-12-31T09:30:47Z
2023-12-31T07:31:18Z,42.805,6.029,13.3036,4.60114,2470.847,2023-12-31T09:33:50Z
2023-12-31T07:34:21Z,42.805,6.029,13.3034,4.60114,2470.847,2023-12-31T09:36:53Z
2023-12-31T07:37:25Z,42.805,6.029,13.3041,4.60114,2470.833,2023-12-31T09:39:56Z
2023-12-31T07:40:28Z,42.805,6.029,13.3034,4.60114,2470.833,2023-12-31T09:42:59Z
2023-12-31T07:43:31Z,42.805,6.029,13.3040,4.60117,2470.871,2023-12-31T09:46:02Z
2023-12-31T07:46:34Z,42.805,6.029,13.3039,4.60114,2470.857,2023-12-31T09:49:05Z
2023-12-31T07:49:37Z,42.805,6.029,13.3035,4.60115,2470.88,2023-12-31T09:52:08Z
2023-12-31T07:52:40Z,42.805,6.029,13.3038,4.60119,2470.857,2023-12-31T09:55:11Z
2023-12-31T07:55:43Z,42.805,6.029,13.3037,4.60114,2470.88,2023-12-31T09:58:14Z
2023-12-31T07:58:46Z,42.805,6.029,13.3036,4.60114,2470.88,2023-12-31T10:01:17Z
2023-12-31T08:01:49Z,42.805,6.029,13.3035,4.60114,2470.88,2023-12-31T10:04:20Z
2023-12-31T08:04:52Z,42.805,6.029,13.3032,4.60119,2470.917,2023-12-31T10:07:23Z
2023-12-31T08:07:55Z,42.805,6.029,13.3035,4.60113,2470.857,2023-12-31T10:10:27Z
2023-12-31T08:10:58Z,42.805,6.029,13.3037,4.60114,2470.857,2023-12-31T10:13:30Z
2023-12-31T08:14:02Z,42.805,6.029,13.3034,4.60113,2470.917,2023-12-31T10:16:33Z
2023-12-31T08:17:05Z,42.805,6.029,13.3042,4.60114,2470.857,2023-12-31T10:19:36Z
2023-12-31T08:20:08Z,42.805,6.029,13.3036,4.60114,2470.871,2023-12-31T10:22:39Z
2023-12-31T08:23:11Z,42.805,6.029,13.3034,4.60114,2470.88,2023-12-31T10:25:42Z
2023-12-31T08:26:14Z,42.805,6.029,13.3035,4.60114,2470.88,2023-12-31T10:28:45Z
2023-12-31T08:29:17Z,42.805,6.029,13.3036,4.60115,2470.88,2023-12-31T10:31:48Z
2023-12-31T08:32:20Z,42.805,6.029,13.3036,4.60113,2470.871,2023-12-31T10:34:51Z
2023-12-31T08:35:23Z,42.805,6.029,13.3036,4.60114,2470.894,2023-12-31T10:37:54Z
2023-12-31T08:38:26Z,42.805,6.029,13.3036,4.60120,2470.927,2023-12-31T10:40:57Z
2023-12-31T08:41:29Z,42.805,6.029,13.3033,4.60114,2470.88,2023-12-31T10:44:01Z
2023-12-31T08:44:32Z,42.805,6.029,13.3036,4.60114,2470.904,2023-12-31T10:47:04Z
2023-12-31T08:47:36Z,42.805,6.029,13.3034,4.60115,2470.927,2023-12-31T10:50:07Z
2023-12-31T08:50:39Z,42.805,6.029,13.3031,4.60117,2470.904,2023-12-31T10:53:10Z
2023-12-31T08:53:42Z,42.805,6.029,13.3034,4.60118,2470.927,2023-12-31T10:56:13Z
2023-12-31T08:56:45Z,42.805,6.029,13.3034,4.60117,2470.95,2023-12-31T10:59:16Z
2023-12-31T08:59:48Z,42.805,6.029,13.3033,4.60116,2470.904,2023-12-31T11:02:19Z
2023-12-31T09:02:51Z,42.805,6.029,13.3034,4.60116,2470.894,2023-12-31T11:05:22Z
2023-12-31T09:05:54Z,42.805,6.029,13.3034,4.60114,2470.904,2023-12-31T11:08:25Z
2023-12-31T09:08:57Z,42.805,6.029,13.3036,4.60115,2470.95,2023-12-31T11:11:28Z
2023-12-31T09:12:00Z,42.805,6.029,13.3038,4.60114,2470.917,2023-12-31T11:14:31Z
2023-12-31T09:15:03Z,42.805,6.029,13.3036,4.60115,2470.927,2023-12-31T11:17:34Z
2023-12-31T09:18:06Z,42.805,6.029,13.3032,4.60115,2470.917,2023-12-31T11:20:38Z
2023-12-31T09:21:09Z,42.805,6.029,13.3036,4.60116,2470.904,2023-12-31T11:23:41Z
2023-12-31T09:24:13Z,42.805,6.029,13.3034,4.60115,2470.904,2023-12-31T11:26:44Z
2023-12-31T09:27:16Z,42.805,6.029,13.3037,4.60117,2470.917,2023-12-31T11:29:47Z
2023-12-31T09:30:19Z,42.805,6.029,13.3031,4.60115,2470.904,2023-12-31T11:32:50Z
2023-12-31T09:33:22Z,42.805,6.029,13.3034,4.60114,2470.927,2023-12-31T11:35:53Z
2023-12-31T09:36:25Z,42.805,6.029,13.3037,4.60122,2470.904,2023-12-31T11:38:56Z
2023-12-31T09:39:28Z,42.805,6.029,13.3038,4.60115,2470.95,2023-12-31T11:41:59Z
2023-12-31T09:42:31Z,42.805,6.029,13.3032,4.60116,2470.94,2023-12-31T11:45:02Z
2023-12-31T09:45:34Z,42.805,6.029,13.3036,4.60115,2470.95,2023-12-31T11:48:05Z
2023-12-31T09:48:37Z,42.805,6.029,13.3036,4.60117,2470.927,2023-12-31T11:51:08Z
2023-12-31T09:51:40Z,42.805,6.029,13.3036,4.60115,2470.95,2023-12-31T11:54:11Z
2023-12-31T09:54:43Z,42.805,6.029,13.3033,4.60115,2470.927,2023-12-31T11:57:15Z
2023-12-31T09:57:46Z,42.805,6.029,13.3039,4.60119,2470.927,2023-12-31T12:00:18Z
2023-12-31T10:00:50Z,42.805,6.029,13.3036,4.60115,2470.936,2023-12-31T12:03:21Z
2023-12-31T10:03:53Z,42.805,6.029,13.3033,4.60115,2470.927,2023-12-31T12:06:24Z
2023-12-31T10:06:56Z,42.805,6.029,13.3036,4.60116,2470.917,2023-12-31T12:09:27Z
2023-12-31T10:09:59Z,42.805,6.029,13.3034,4.60115,2470.95,2023-12-31T12:12:30Z
2023-12-31T10:13:02Z,42.805,6.029,13.3034,4.60116,2470.94,2023-12-31T12:15:33Z
2023-12-31T10:16:05Z,42.805,6.029,13.3031,4.60115,2470.927,2023-12-31T12:18:36Z
2023-12-31T10:19:08Z,42.805,6.029,13.3034,4.60115,2470.917,2023-12-31T12:21:39Z
2023-12-31T10:22:11Z,42.805,6.029,13.3035,4.60115,2470.95,2023-12-31T12:24:42Z
2023-12-31T10:25:14Z,42.805,6.029,13.3037,4.60116,2470.904,2023-12-31T12:27:45Z
2023-12-31T10:28:17Z,42.805,6.029,13.3038,4.60117,2470.904,2023-12-31T12:30:49Z
2023-12-31T10:31:20Z,42.805,6.029,13.3040,4.60117,2470.904,2023-12-31T12:33:52Z
2023-12-31T10:34:23Z,42.805,6.029,13.3039,4.60116,2470.94,2023-12-31T12:36:55Z
2023-12-31T10:37:27Z,42.805,6.029,13.3036,4.60117,2470.964,2023-12-31T12:39:58Z
2023-12-31T10:40:30Z,42.805,6.029,13.3036,4.60116,2470.89,2023-12-31T12:43:01Z
2023-12-31T10:43:33Z,42.805,6.029,13.3035,4.60119,2470.927,2023-12-31T12:46:04Z
2023-12-31T10:46:36Z,42.805,6.029,13.3036,4.60119,2470.95,2023-12-31T12:49:07Z
2023-12-31T10:49:39Z,42.805,6.029,13.3038,4.60116,2470.95,2023-12-31T12:52:10Z
2023-12-31T10:52:42Z,42.805,6.029,13.3036,4.60117,2470.95,2023-12-31T12:55:13Z
2023-12-31T10:55:45Z,42.805,6.029,13.3036,4.60117,2470.904,2023-12-31T12:58:16Z
2023-12-31T10:58:48Z,42.805,6.029,13.3041,4.60115,2470.927,2023-12-31T13:01:19Z
2023-12-31T11:01:51Z,42.805,6.029,13.3036,4.60115,2470.95,2023-12-31T13:04:22Z
2023-12-31T11:04:54Z,42.805,6.029,13.3032,4.60120,2470.927,2023-12-31T13:07:25Z
2023-12-31T11:07:57Z,42.805,6.029,13.3034,4.60117,2470.904,2023-12-31T13:10:29Z
2023-12-31T11:11:01Z,42.805,6.029,13.3036,4.60119,2470.917,2023-12-31T13:13:32Z
2023-12-31T11:14:04Z,42.805,6.029,13.3033,4.60117,2470.917,2023-12-31T13:16:35Z
2023-12-31T11:17:07Z,42.805,6.029,13.3037,4.60120,2470.927,2023-12-31T13:19:38Z
2023-12-31T11:20:10Z,42.805,6.029,13.3036,4.60119,2470.904,2023-12-31T13:22:41Z
2023-12-31T11:23:13Z,42.805,6.029,13.3041,4.60119,2470.917,2023-12-31T13:25:44Z
2023-12-31T11:26:16Z,42.805,6.029,13.3043,4.60117,2470.95,2023-12-31T13:28:47Z
2023-12-31T11:29:19Z,42.805,6.029,13.3036,4.60117,2470.927,2023-12-31T13:31:50Z
2023-12-31T11:32:22Z,42.805,6.029,13.3037,4.60117,2470.904,2023-12-31T13:34:53Z
2023-12-31T11:35:25Z,42.805,6.029,13.3036,4.60116,2470.904,2023-12-31T13:37:56Z
2023-12-31T11:38:28Z,42.805,6.029,13.3041,4.60119,2470.904,2023-12-31T13:40:59Z
2023-12-31T11:41:31Z,42.805,6.029,13.3032,4.60119,2470.904,2023-12-31T13:44:03Z
2023-12-31T11:44:34Z,42.805,6.029,13.3039,4.60117,2470.904,2023-12-31T13:47:06Z
2023-12-31T11:47:37Z,42.805,6.029,13.3038,4.60120,2470.917,2023-12-31T13:50:09Z
2023-12-31T11:50:41Z,42.805,6.029,13.3036,4.60117,2470.88,2023-12-31T13:53:12Z
2023-12-31T11:53:44Z,42.805,6.029,13.3043,4.60121,2470.894,2023-12-31T13:56:15Z
2023-12-31T11:56:47Z,42.805,6.029,13.3036,4.60119,2470.917,2023-12-31T13:59:18Z
2023-12-31T11:59:50Z,42.805,6.029,13.3036,4.60118,2470.904,2023-12-31T14:02:21Z
2023-12-31T12:02:53Z,42.805,6.029,13.3036,4.60119,2470.904,2023-12-31T14:05:24Z
2023-12-31T12:05:56Z,42.805,6.029,13.3036,4.60119,2470.904,2023-12-31T14:08:27Z
2023-12-31T12:08:59Z,42.805,6.029,13.3036,4.60121,2470.88,2023-12-31T14:11:30Z
2023-12-31T12:12:02Z,42.805,6.029,13.3036,4.60117,2470.871,2023-12-31T14:14:33Z
2023-12-31T12:15:05Z,42.805,6.029,13.3037,4.60117,2470.904,2023-12-31T14:17:36Z
2023-12-31T12:18:08Z,42.805,6.029,13.3038,4.60117,2470.904,2023-12-31T14:20:40Z
2023-12-31T12:21:11Z,42.805,6.029,13.3038,4.60117,2470.871,2023-12-31T14:23:43Z
2023-12-31T12:24:15Z,42.805,6.029,13.3039,4.60119,2470.88,2023-12-31T14:26:46Z
2023-12-31T12:27:18Z,42.805,6.029,13.3039,4.60118,2470.857,2023-12-31T14:29:49Z
2023-12-31T12:30:21Z,42.805,6.029,13.3040,4.60119,2470.894,2023-12-31T14:32:52Z
2023-12-31T12:33:24Z,42.805,6.029,13.3037,4.60119,2470.88,2023-12-31T14:35:55Z
2023-12-31T12:36:27Z,42.805,6.029,13.3040,4.60125,2470.88,2023-12-31T14:38:58Z
2023-12-31T12:39:30Z,42.805,6.029,13.3039,4.60122,2470.88,2023-12-31T14:42:01Z
2023-12-31T12:42:33Z,42.805,6.029,13.3036,4.60125,2470.857,2023-12-31T14:45:04Z
2023-12-31T12:45:36Z,42.805,6.029,13.3041,4.60118,2470.894,2023-12-31T14:48:07Z
2023-12-31T12:48:39Z,42.805,6.029,13.3041,4.60120,2470.833,2023-12-31T14:51:10Z
2023-12-31T12:51:42Z,42.805,6.029,13.3038,4.60119,2470.894,2023-12-31T14:54:13Z
2023-12-31T12:54:45Z,42.805,6.029,13.3037,4.60119,2470.833,2023-12-31T14:57:17Z
2023-12-31T12:57:48Z,42.805,6.029,13.3041,4.60119,2470.871,2023-12-31T15:00:20Z
2023-12-31T13:00:52Z,42.805,6.029,13.3052,4.60120,2470.833,2023-12-31T15:03:23Z
2023-12-31T13:03:55Z,42.805,6.029,13.3047,4.60121,2470.857,2023-12-31T15:06:26Z
2023-12-31T13:06:58Z,42.805,6.029,13.3040,4.60121,2470.857,2023-12-31T15:09:29Z
2023-12-31T13:10:01Z,42.805,6.029,13.3044,4.60122,2470.857,2023-12-31T15:12:32Z
2023-12-31T13:13:04Z,42.805,6.029,13.3042,4.60119,2470.847,2023-12-31T15:15:35Z
2023-12-31T13:16:07Z,42.805,6.029,13.3042,4.60125,2470.847,2023-12-31T15:18:38Z
2023-12-31T13:19:10Z,42.805,6.029,13.3042,4.60123,2470.88,2023-12-31T15:21:41Z
2023-12-31T13:22:13Z,42.805,6.029,13.3040,4.60120,2470.81,2023-12-31T15:24:44Z
2023-12-31T13:25:16Z,42.805,6.029,13.3039,4.60120,2470.833,2023-12-31T15:27:47Z
2023-12-31T13:28:19Z,42.805,6.029,13.3039,4.60125,2470.833,2023-12-31T15:30:50Z
2023-12-31T13:31:24Z,42.805,6.029,13.3041,4.60120,2470.81,2023-12-31T15:33:55Z
2023-12-31T13:34:27Z,42.805,6.029,13.3046,4.60121,2470.871,2023-12-31T15:36:58Z
2023-12-31T13:37:30Z,42.805,6.029,13.3039,4.60120,2470.833,2023-12-31T15:40:01Z
2023-12-31T13:40:33Z,42.805,6.029,13.3042,4.60120,2470.847,2023-12-31T15:43:05Z
2023-12-31T13:43:36Z,42.805,6.029,13.3039,4.60122,2470.82,2023-12-31T15:46:08Z
2023-12-31T13:46:40Z,42.805,6.029,13.3043,4.60126,2470.857,2023-12-31T15:49:11Z
2023-12-31T13:49:43Z,42.805,6.029,13.3047,4.60124,2470.847,2023-12-31T15:52:14Z
2023-12-31T13:52:46Z,42.805,6.029,13.3044,4.60125,2470.833,2023-12-31T15:55:17Z
2023-12-31T13:55:49Z,42.805,6.029,13.3041,4.60126,2470.833,2023-12-31T15:58:20Z
2023-12-31T13:58:52Z,42.805,6.029,13.3045,4.60121,2470.81,2023-12-31T16:01:23Z
2023-12-31T14:01:55Z,42.805,6.029,13.3041,4.60121,2470.787,2023-12-31T16:04:26Z
2023-12-31T14:04:58Z,42.805,6.029,13.3042,4.60121,2470.833,2023-12-31T16:07:29Z
2023-12-31T14:08:01Z,42.805,6.029,13.3040,4.60122,2470.787,2023-12-31T16:10:32Z
2023-12-31T14:11:04Z,42.805,6.029,13.3039,4.60122,2470.773,2023-12-31T16:13:35Z
2023-12-31T14:14:07Z,42.805,6.029,13.3040,4.60121,2470.787,2023-12-31T16:16:39Z
2023-12-31T14:17:10Z,42.805,6.029,13.3042,4.60123,2470.81,2023-12-31T16:19:42Z
2023-12-31T14:20:14Z,42.805,6.029,13.3040,4.60120,2470.8,2023-12-31T16:22:45Z
2023-12-31T14:23:17Z,42.805,6.029,13.3040,4.60122,2470.833,2023-12-31T16:25:48Z
2023-12-31T14:26:20Z,42.805,6.029,13.3046,4.60124,2470.81,2023-12-31T16:28:51Z
2023-12-31T14:29:23Z,42.805,6.029,13.3039,4.60121,2470.8,2023-12-31T16:31:54Z
2023-12-31T14:32:26Z,42.805,6.029,13.3045,4.60123,2470.8,2023-12-31T16:34:57Z
2023-12-31T14:35:29Z,42.805,6.029,13.3042,4.60125,2470.824,2023-12-31T16:38:00Z
2023-12-31T14:38:32Z,42.805,6.029,13.3042,4.60122,2470.824,2023-12-31T16:41:03Z
2023-12-31T14:41:35Z,42.805,6.029,13.3039,4.60124,2470.787,2023-12-31T16:44:06Z
2023-12-31T14:44:38Z,42.805,6.029,13.3045,4.60122,2470.8,2023-12-31T16:47:09Z
2023-12-31T14:47:41Z,42.805,6.029,13.3043,4.60121,2470.8,2023-12-31T16:50:12Z
2023-12-31T14:50:44Z,42.805,6.029,13.3038,4.60119,2470.787,2023-12-31T16:53:16Z
2023-12-31T14:53:48Z,42.805,6.029,13.3040,4.60121,2470.763,2023-12-31T16:56:19Z
2023-12-31T14:56:51Z,42.805,6.029,13.3041,4.60121,2470.787,2023-12-31T16:59:22Z
2023-12-31T14:59:54Z,42.805,6.029,13.3041,4.60119,2470.787,2023-12-31T17:02:25Z
2023-12-31T15:02:57Z,42.805,6.029,13.3044,4.60120,2470.787,2023-12-31T17:05:28Z